Weather in Sovdozero

Russia / Republic of Karelia     62°48′24″N   33°07′10″E
temp.,
°C
wind,
m/s
gust,
m/s
humid.,
%
clouds,
%
prec.,
mm/h
press.,
hPa
HPBL,
m
4 march, thu
thu400:00−5nnw499490 0.3 997620
03:00−8nnw399588 0.3 999283
06:00−9nnw259786 0.1 999124
09:00−8nw389579 0.1 1000280
12:00−5nw378880 0.0 1000540
15:00−5nw478488 0.1 1000821
18:00−6nw4892100 0.1 1001665
21:00−8nw399493 0.3 1001420
5 march, fri
fri500:00−9nne389484 0.3 1003501
03:00−13n239488 0.3 100524
06:00−15nw228710 0.0 100620
09:00−12nw399352 0.1 1008362
12:00−9n368396 0.0 1009688
15:00−8nnw358092 0.1 1011911
18:00−10nnw229499 0.1 101261
21:00−13nnw229576 0.1 101420
6 march, sat
sat600:00−14w22960 0.0 101522
03:00−14w25973 0.0 101585
06:00−15wsw259715 0.0 101391
09:00−13sw38948 0.0 1012243
12:00−8ssw5108533 0.0 1007497
15:00−6ssw7138066 0.0 1002937
18:00−6ssw71592100 0.7 9941122
21:00−5ssw71494100 2.4 988940
7 march, sun
sun700:00−5wnw61288100 2.2 986708
03:00−10wnw41273100 2.2 986720
06:00−17w348833 0.0 98673
09:00−15wsw119027 0.0 98726
12:00−10ene237810 0.0 989381
15:00−8n23725 0.0 992641
18:00−11nnw389094 0.0 994351
21:00−12n6138997 0.3 997836
8 march, mon
mon800:00−15nne61490100 0.1 1000690
03:00−17nne61490100 0.2 1003629
06:00−19n61492100 0.1 1006570
09:00−19n61493100 0.1 1010519
12:00−17n61191100 0.0 1012496
15:00−15n51188100 0.1 1014541
18:00−16n4108955 0.0 1017506
21:00−20n3109662 0.0 1019281